Location: Curupao
(10.4996°N, 66.6442°W)
Time: 00:57:15
(UTC+00:00)

Cosmos 1959 Rocket - Pass Details

Date: 23 May 2024
Orbit: 948 x 995 km, 83.0° (Epoch: 12 June)

Event Time Altitude Azimuth Distance (km) Brightness Sun altitude
Exits shadow 08:20:45 23° 179° (S) 1,905 5.8 -23.9°
Maximum altitude 08:24:46 82° 93° (E) 961 4.4 -23.0°
Drops below altitude 10° 08:30:53 10° 6° (N) 2,680 7.2 -21.7°
Sets 08:33:23 0° 5° (N) 3,631 7.9 -21.1°
